Theta_e
298 299 300 300 300 300 301 305 306 307 308 307 303 302 299 299 296 295 293 292 291 290 290 289 289 290 290 288 288 286 286 287
295 296 297 297 297 297 296 298 299 300 297 296 297 295 295 294 292 290 290 289 289 288 288 287 287 287 287 287 285 285 284 285
294 294 294 294 294 294 294 293 293 295 295 294 293 292 291 289 289 289 288 288 287 287 286 286 285 285 285 284 284 283 283 284
292 292 292 292 292 291 291 290 292 293 292 290 290 289 288 288 287 287 286 286 285 285 284 284 284 284 284 284 284 283 283 283
291 290 291 291 290 289 289 290 289 290 289 288 287 287 287 286 286 286 285 284 283 283 283 283 282 283 283 284 283 283 283 284
291 291 290 289 289 289 289 288 289 288 287 286 285 285 285 284 284 283 283 282 282 281 281 281 282 284 283 283 282 282 282 282
292 292 290 290 290 289 289 288 287 286 285 285 284 283 283 283 282 282 281 281 281 280 280 280 281 286 287 285 282 282 281 281
293 292 292 292 291 289 288 287 285 284 284 283 283 282 282 282 281 281 280 280 280 280 280 279 279 285 286 287 283 282 281 281
295 294 293 292 290 289 287 285 284 284 283 282 282 282 281 280 280 279 279 279 279 279 279 278 279 284 286 286 282 281 281 281
297 296 293 291 291 287 285 284 284 283 283 282 282 280 278 278 277 279 278 277 276 278 274 273 275 283 284 284 280 281 280 281
296 294 292 291 288 286 285 284 283 283 282 280 280 278 277 278 277 277 276 277 277 276 273 273 271 280 283 283 279 273 278 278
295 293 292 290 288 286 284 283 283 281 279 278 277 276 276 276 275 274 273 273 271 273 273 273 273 274 281 282 279 277 274 275
293 291 290 287 287 285 283 282 280 279 277 275 275 277 275 273 272 271 271 272 273 273 273 274 273 276 279 280 281 281 270 273
291 287 286 286 288 285 283 279 277 276 274 272 274 274 273 272 272 271 272 273 273 273 271 272 274 273 277 278 280 280 277 278
284 284 283 285 286 286 279 279 277 274 273 273 272 271 273 274 273 273 272 272 272 272 271 270 270 270 272 274 273 276 277 278
283 283 281 280 280 279 277 277 275 274 273 273 273 273 272 272 272 273 273 273 271 270 269 266 265 269 278 278 275 276 278 279
277 278 276 276 275 275 276 277 275 273 273 273 272 272 271 271 269 273 274 275 276 276 273 270 275 277 278 279 279 280 280 269
276 275 274 274 273 273 275 276 275 274 273 272 271 271 269 268 269 268 268 271 272 272 273 274 274 275 277 278 279 276 273 261
274 273 273 272 271 272 275 276 275 274 272 271 270 269 267 267 266 265 265 265 265 267 270 271 272 274 276 275 270 261 263 257
274 272 272 271 267 269 272 273 271 270 269 269 267 266 266 265 264 264 263 262 262 261 265 265 270 272 272 271 258 257 257 257
Wind_Speed
7 7 5 4 4 5 5 7 6 8 9 9 12 10 10 9 9 8 7 6 7 6 7 6 6 6 6 4 4 5 4 3
6 6 6 5 5 5 6 8 9 9 9 9 13 10 11 10 8 7 7 7 7 6 7 6 6 5 5 5 5 5 4 3
6 6 6 6 6 6 6 6 6 9 10 9 10 12 12 9 7 7 7 6 7 6 6 6 5 5 6 5 4 4 5 6
6 7 7 6 6 6 6 6 7 9 10 10 11 12 11 10 8 7 7 6 6 6 6 5 5 5 4 3 3 5 5 5
8 6 6 6 7 7 6 6 7 8 9 10 9 10 10 8 7 7 7 7 6 6 5 4 4 4 4 5 5 5 4 4
9 9 8 8 7 7 8 8 8 10 10 9 8 9 9 8 7 7 6 6 6 6 5 4 4 3 4 3 2 3 5 4
11 12 12 11 11 9 10 9 8 9 9 9 9 9 8 7 7 6 6 6 6 5 5 4 3 5 4 3 3 3 4 5
16 16 14 13 12 12 11 8 7 9 9 9 8 8 7 7 7 6 6 5 6 6 4 4 3 5 6 5 3 4 4 5
16 15 15 13 12 10 9 10 10 9 9 7 8 8 7 7 7 6 4 4 4 4 4 4 3 6 7 7 3 4 5 5
15 13 13 15 14 12 11 10 10 10 10 9 8 8 7 6 6 4 4 3 2 2 3 3 3 7 7 6 3 4 5 5
14 13 15 15 14 15 14 13 13 12 10 7 7 8 7 6 5 2 2 3 3 3 3 1 2 7 8 6 1 3 4 4
14 16 16 16 17 16 15 16 11 9 9 7 6 7 6 6 3 4 4 4 3 4 3 3 3 5 7 7 1 3 3 4
15 15 15 16 18 17 18 12 12 11 10 8 7 5 5 7 4 3 4 4 4 4 3 2 3 5 5 8 9 10 0 4
12 11 11 15 17 17 14 15 14 13 10 7 7 6 5 5 5 3 3 3 3 2 1 2 2 3 7 8 9 11 6 5
9 11 11 12 12 12 15 15 15 14 11 9 9 6 4 3 3 3 3 3 2 1 1 2 3 3 4 3 3 6 5 9
7 9 9 7 9 13 14 16 14 12 11 9 7 6 6 4 3 3 2 3 2 2 2 1 3 3 9 9 5 5 8 10
4 6 6 8 10 12 13 15 16 13 9 8 7 5 5 5 4 2 2 3 2 0 1 2 4 9 11 12 13 14 16 3
7 8 9 9 10 9 10 12 13 12 10 7 6 5 5 4 3 4 2 0 0 2 2 3 5 8 9 10 12 11 9 1
7 8 9 10 10 7 9 11 10 9 10 7 6 5 5 5 4 3 2 2 2 3 4 5 7 7 7 11 7 4 5 2
7 7 9 10 7 5 7 10 9 8 6 6 6 5 5 5 4 3 3 3 2 1 3 5 7 6 9 8 2 3 3 3
Wind_Direction
171 176 185 172 150 129 142 145 137 128 132 137 118 116 120 124 118 118 108 102 107 101 90 79 75 77 81 72 46 54 28 28
178 172 164 144 145 132 124 135 126 127 119 121 124 132 113 112 115 117 118 122 114 109 102 96 86 75 78 65 48 49 25 18
166 158 153 157 149 147 132 121 121 124 122 127 124 112 110 116 114 112 107 99 109 106 97 95 87 78 74 56 35 32 15 5
165 170 166 155 146 146 134 124 123 124 127 122 119 120 124 128 124 121 119 114 102 103 100 92 87 90 76 88 38 26 13 359
172 166 162 163 157 142 127 136 130 128 130 126 128 128 125 123 123 126 123 117 108 103 104 100 106 96 63 43 22 7 357 331
165 173 179 174 157 145 142 142 142 133 133 133 121 117 120 122 126 123 121 117 114 115 100 84 81 55 52 34 2 339 324 324
173 180 186 180 175 157 153 154 147 140 138 136 133 131 132 129 131 120 121 124 119 106 109 85 62 40 6 11 352 335 303 299
189 191 187 181 170 171 163 147 143 141 141 140 136 136 141 136 131 135 140 135 125 104 89 75 45 14 9 352 324 311 311 299
191 191 185 171 165 153 152 158 152 149 151 143 143 142 137 135 143 137 138 122 108 87 65 53 22 14 5 353 334 304 291 288
193 183 172 169 163 153 151 153 157 161 161 162 155 143 139 141 142 135 109 90 102 91 51 38 355 9 4 357 331 310 293 280
175 172 170 172 155 156 166 167 176 170 164 151 146 144 142 135 135 109 116 113 82 67 67 33 351 7 7 360 276 300 275 264
169 180 178 163 161 170 168 182 167 136 131 128 124 129 129 126 97 111 109 107 86 74 35 28 23 346 355 349 245 264 296 318
172 178 170 166 167 172 180 157 136 133 130 133 130 127 127 125 120 115 123 114 96 85 46 352 322 322 332 351 347 338 319 300
171 155 163 172 178 174 164 144 137 136 135 131 122 123 132 132 135 121 117 106 101 102 119 280 277 278 323 326 339 338 329 305
140 163 169 176 176 168 150 143 141 138 137 134 129 130 121 115 123 127 142 126 144 152 217 243 255 260 262 250 282 301 314 294
159 164 164 145 139 144 144 142 137 134 139 141 140 143 136 120 130 147 138 168 167 205 221 233 312 290 338 344 333 322 311 329
95 118 129 131 135 140 148 146 141 141 147 149 144 145 146 149 122 24 141 224 189 258 220 241 304 332 338 334 321 328 333 6
150 139 144 143 137 137 138 139 144 144 144 140 140 152 155 120 158 171 219 306 358 360 345 337 344 338 335 323 338 342 353 354
131 137 141 141 137 129 135 135 131 130 138 145 144 140 128 150 163 162 176 202 218 345 341 358 345 335 341 343 22 350 339 260
131 135 138 139 129 113 121 128 132 133 137 132 128 125 146 142 156 169 170 206 208 290 346 338 336 347 358 18 121 229 259 276